Погода в Буденновске

Погода в Буденновске : погода сейчас, прогноз погоды и архив. Всё, что Вы хотите узнать о погоде в Буденновске!

Хотите узнать прогноз погоды в Буденновске? Тогда Вам сюда: Погода в Буденновске

Поиск расширенной информации на нашем сайте:

Другие новости

Новости СМИ2

Главная страница сайта

Новости сайта

03.07.2017

Напоминаем, что на нашем специализированном сайте Метеоцентр.Азия вы можете получить высокодетализированные автоматические прогнозы погоды по пунктам России, СНГ и мира в авиационном формате (включающие направление и скорость ветра, видимость, явления погоды, количество и форму облачности, нижнюю и верхнюю границу облачности).

Рекомендуем: реставрация ванн

Погода в Буденновске - сегодня

Время (UTC), дата Ветер
(°,м/с) 
Видим.   Явления Облачность Т
(°С)
Тd
(°С)
f(%) Тe
(°С)
Pmin
(гПа)
dP
(гПа)
Po
(мм)
O2
(г/м3)
Тmin Tmax R s Состояние
почвы
03 20.07.17 320 (СЗ) 10 км    ясно 
+24.7 +12.3 46 +29  1006.7  0.7  743  272  +23.3        сухая 
06 20.07.17 350 (С) 10 км    ясно 
+30.9 +13 34 +37  1006.9  0.5  744  267           
09 20.07.17 030 (СВ) 10 км    4/0 средняя, верхняя 
[Ac trans|Ci fib]
+35.2 +11.8 24 +39  1005.6  -1  743  263           
12 20.07.17 180 (Ю) 10 км    8/6 1000 м верхняя 
[Cu med, cong|Ci fib]
+37.5 +10.8 20 +40  1004.1  -1.4  742  261           
15 20.07.17 330 (СЗ) 10 км  сильн. гроза с градом{ливн. осадки}  9/9 600 м кучево-дожд., средняя 
[Cb cap|Ac trans]
+25 +17.1 62 +38  1006.1  1.4  743  271    +37.6     
18 20.07.17 330 (СЗ) 2{20}  20000 м  осадки на расстоянии{гроза, ливн. осадки}  9/8 600 м кучево-дожд., средняя 
[Cb calv|Ac trans]
+25.1 +15.8 56 +35  1006.9  0.7  744  271           
21 20.07.17 280 (З) 20000 м    ясно 
+23.9 +14.2 55 +31  1007.1  -0.1  744  273           
00 21.07.17 290 (З) 20000 м    ясно 
+22.5 +14.1 59 +30  1008.1  0.9  744  274           
03 21.07.17 300 (СЗ) 10 км    4/0 средняя 
[Ac trans]
+20.5 +14.2 67 +28  1010.2  1.9  746  277  +20.5      влажная 
06 21.07.17 330 (СЗ) 4{10}  10 км    ясно 
+26.6 +14.9 49 +35  1011.1  1.2  747  271           
09 21.07.17 350 (С) 3{12}  10 км    ясно 
+30.3 +13.4 36 +36  1011.4  0.5  747  268           
12 21.07.17 340 (С) 10 км    3/3 1000 м 
[Cu med, cong]
+32.3 +12.3 30 +37  1010.9  -0.4  747  267           
15 21.07.17 330 (СЗ) 10 км    9/8 600 м средняя 
[Sc|Ac trans]
+31.5 +11.9 30 +35  1011.2  0.3  747  268    +32.5       
18 21.07.17 350 (С) 20000 м    3/0 средняя 
[Ac trans]
+26.9 +14.6 47 +35  1012.8  1.4  748  271           
21 21.07.17 340 (С) 20000 м    ясно 
+24.9 +14.3 52 +32  1012.6  -0.3  748  273           
00 22.07.17 010 (С) 20000 м    4/0 средняя 
[Ac trans]
+23.7 +13.8 54 +30  1013  0.3  748  275           
03 22.07.17 тихо ()   10 км    8/4 600 м верхняя 
[Sc|Ci fib]
+23.1 +15.2 61 +32  1013.3  0.3  748  275  +21.9        сухая 
06 22.07.17 060 (СВ) 10 км    1/0 верхняя 
[Ci fib]
+28.7 +13.8 40 +35  1013.5  0.5  749  270           
09 22.07.17 050 (СВ) 10 км    6/3 600 м средняя, верхняя 
[Cu hum|Ac trans|Ci fib]
+32.3 +12.2 29 +37  1011.6  -1.7  747  267           
12 22.07.17 100 (В) 2{12}  10 км    9/1 600 м средняя, верхняя 
[Cu hum|Ac trans|Ci fib]
+34.6 +12 25 +39  1009.8  -1.6  746  265           
15 22.07.17 080 (В) 10 км    9/6 600 м средняя, верхняя 
[Sc|Ac trans|Ci fib]
+33.6 +12.2 27 +38  1009.2  -0.6  746  265    +35.3       
18 22.07.17 020 (С) 20000 м  {ливн. осадки}  9/8 600 м средняя 
[Sc|Ac trans]
+29.1 +15 42 +38  1009.4  0.1  746  268           
21 22.07.17 090 (В) 20000 м    1/0 верхняя 
[Ci fib]
+27.9 +13.6 41 +34  1008.6  -0.9  745  270           
00 23.07.17 050 (СВ) 20000 м  зарница  10/10 600 м кучево-дожд. 
[Cb cap]
+26.2 +15.8 53 +36  1008.2  -0.4  745  270           
03 23.07.17 310 (СЗ) 10 км  гроза, ливневой дождь  9/9 600 м кучево-дожд. 
[Cb cap]
+18.5 +15.2 81 +27  1011.8  3.1  747  279  +18.5    0.8     
Время (UTC), дата Ветер
(°,м/с) 
Видим.   Явления Облачность Т
(°С)
Тd
(°С)
f(%) Тe
(°С)
Pmin
(гПа)
dP
(гПа)
Po
(мм)
O2
(г/м3)
Тmin Tmax R s Состояние
почвы

Для получения пояснительной информации подведите курсор к названию столбца.

ПОГОДА в Буденновске - архив

Всё, что Вы хотите узнать о погоде в Буденновске - удобно и подробно!

Выберите нужную дату (начиная с 1 января 2015* года) и нажмите кнопку "Найти".
Будут отображены архивные сводки погоды по пункту Буденновск, начиная с указанной даты.


Отображать данные в формате CSV (для использования в таблицах Excel)


Внимание! Наш архив погоды предназначен исключительно для личного некоммерческого использования в познавательных целях. Если Вам необходимы официальные справки о состоянии погоды (для производственных, юридических, коммерческих и т.п. целей), обращайтесь в органы Росгидромета.

*Примечание: данная дата относится к архиву по метеостанциям СССР (Россия, СНГ, Балтия).
Архив по метеостанциям Зарубежной Европы и Азии (кроме Китая) хранится 10 дней, по другим регионам земного шара (Китай, Африка, Америка, Австралия, Океания) - 1 день.

Буденновск - район местоположения метеостанции


Название, широта, долгота, высота метеостанции:
Буденновск (Прикумск) 44.8°ш. 44.1°д. 136 м над ур. моря [Российская Федерация]

Дополнительная информация

В oтличие oт бoльшинства пoгoдных сайтoв мы публикуем пoдрoбную метеoинфoрмацию в детальнoм прoфессиoнальнoм фoрмате.

Характеристики температуры и влажнoсти вoздуха измеряются на высoте 2 м в тени вдали oт зданий и деревьев.
Скoрoсть ветра измеряется на высoте 10 м (на урoвне рoста челoвека скoрoсть ветра ниже в 1.5-2 раза). Если метеoстанция нахoдится в гoрoде или в лесу, тo скoрoсть ветра занижена на 2-4 м/с пo сравнению с oткрытым местoм. Скoрoсть ветра над акватoриями крупных рек и oзёр, а также на вершинах хoлмoв на 2-5 м/с выше, чем в oбычных услoвиях.
Атмoсфернoе давление в разных тoчках местнoсти мoжет значительнo oтличаться oт давления на метеoстанции, в зависимoсти oт услoвий рельефа (при пoдъёме на 10 м давление пoнижается примернo на 1 мм рт.ст.).